This demonstration page uses our WeatherBlox Daily Observations layout. Learn more.

Left ArrowRight Arrow

39.12711, -84.51439

Hourly Observations for June 6, 2016

Temp ( °F °C ) Dew Point ( °F °C ) Humidity (%) Winds ( mph kmh ) Pressure ( in mb ) Visibility ( mi km ) Precip ( " mm )
12:53 am 00:53 Clear 62 16.7 60 15.6 93 93 SSW 8 13 29.81 1009 10 16 N/A
1:53 am 01:53 Clear 62 16.7 60 15.6 93 93 SSW 8 13 29.81 1009 10 16 N/A
2:53 am 02:53 Clear 63 17.2 59 15 87 87 SW 7 11 29.80 1009 10 16 N/A
3:53 am 03:53 Clear 64 17.8 59 15 84 84 SW 7 11 29.80 1009 10 16 N/A
4:53 am 04:53 Mostly Cloudy 63 17.2 59 15 87 87 SW 3 6 29.80 1009 10 16 N/A
5:53 am 05:53 Partly Cloudy 64 17.8 59 15 84 84 N N/A 29.80 1009 10 16 N/A
6:53 am 06:53 Mostly Cloudy 63 17.2 59 15 87 87 N N/A 29.81 1010 10 16 N/A
7:53 am 07:53 Partly Cloudy 66 18.9 61 16.1 84 84 S 6 9 29.81 1010 10 16 N/A
8:53 am 08:53 Sunny 70 21.1 62 16.7 76 76 SW 6 9 29.80 1009 10 16 N/A
9:53 am 09:53 Sunny 74 23.3 61 16.1 64 64 WSW 9 15 29.80 1009 10 16 N/A
10:53 am 10:53 Sunny 77 25 62 16.7 60 60 SW 12 19 29.79 1009 10 16 N/A
11:53 am 11:53 Sunny 79 26.1 63 17.2 58 58 SSW 14 22 29.78 1009 10 16 N/A
12:53 pm 12:53 Sunny 80 26.7 61 16.1 52 52 SW 15 24 29.76 1008 10 16 N/A
1:53 pm 13:53 Mostly Sunny 82 27.8 61 16.1 49 49 WSW 17 28 29.74 1007 10 16 N/A
2:53 pm 14:53 Mostly Sunny 82 27.8 62 16.7 51 51 SW 14 22 29.71 1006 10 16 N/A
3:53 pm 15:53 Mostly Sunny 82 27.8 61 16.1 49 49 SSW 17 28 29.69 1005 10 16 N/A
4:53 pm 16:53 Mostly Cloudy 80 26.7 61 16.1 52 52 SSW 17 28 29.67 1005 10 16 N/A
5:53 pm 17:53 Mostly Sunny 82 27.8 60 15.6 47 47 SSW 18 30 29.66 1004 10 16 N/A
6:53 pm 18:53 Partly Cloudy 81 27.2 59 15 47 47 SW 15 24 29.65 1004 10 16 N/A
7:53 pm 19:53 Mostly Cloudy 80 26.7 58 14.4 47 47 WSW 13 20 29.66 1004 10 16 N/A
8:53 pm 20:53 Sunny 77 25 51 10.6 40 40 W 12 19 29.67 1005 10 16 N/A
9:53 pm 21:53 Clear 72 22.2 53 11.7 52 52 SW 8 13 29.67 1005 10 16 N/A
10:53 pm 22:53 Clear 67 19.4 54 12.2 63 63 SW 9 15 29.68 1005 10 16 N/A
11:53 pm 23:53 Clear 65 18.3 55 12.8 70 70 SSW 10 17 29.67 1005 10 16 N/A

Powered by AerisWeather